TimeAKDT,TemperatureF,Dew PointF,Humidity,Sea Level PressureIn,VisibilityMPH,Wind Direction,Wind SpeedMPH,Gust SpeedMPH,PrecipitationIn,Events,Conditions,WindDirDegrees,DateUTC
12:53 AM,46.9,44.1,90,30.12,10.0,ENE,3.5,-,N/A,,Clear,70,2013-09-25 08:53:00
1:53 AM,46.9,45.0,93,30.14,10.0,Calm,Calm,-,N/A,,Clear,0,2013-09-25 09:53:00
2:53 AM,46.9,45.0,93,30.14,10.0,ESE,5.8,-,N/A,,Clear,110,2013-09-25 10:53:00
3:53 AM,45.0,42.1,90,30.14,10.0,NE,3.5,-,N/A,,Clear,40,2013-09-25 11:53:00
4:53 AM,44.1,43.0,96,30.14,10.0,Calm,Calm,-,N/A,,Clear,0,2013-09-25 12:53:00
5:53 AM,43.0,42.1,97,30.16,10.0,East,5.8,-,N/A,,Clear,90,2013-09-25 13:53:00
6:53 AM,44.1,42.1,93,30.15,10.0,East,3.5,-,N/A,,Clear,100,2013-09-25 14:53:00
7:53 AM,45.0,43.0,93,30.15,10.0,Calm,Calm,-,N/A,,Clear,0,2013-09-25 15:53:00
8:53 AM,48.9,43.0,80,30.15,10.0,Calm,Calm,-,N/A,,Clear,0,2013-09-25 16:53:00
9:53 AM,50.0,45.0,83,30.15,10.0,WNW,3.5,-,N/A,,Clear,300,2013-09-25 17:53:00
10:53 AM,54.0,45.0,72,30.14,10.0,Variable,3.5,-,N/A,,Clear,0,2013-09-25 18:53:00
11:53 AM,54.0,45.0,72,30.15,10.0,Calm,Calm,-,N/A,,Scattered Clouds,0,2013-09-25 19:53:00
12:53 PM,57.0,46.9,69,30.13,10.0,Calm,Calm,-,N/A,,Scattered Clouds,0,2013-09-25 20:53:00
1:53 PM,57.0,46.0,67,30.12,10.0,SSW,12.7,-,N/A,,Scattered Clouds,200,2013-09-25 21:53:00
2:53 PM,57.9,46.0,65,30.10,10.0,South,13.8,19.6,N/A,,Mostly Cloudy,190,2013-09-25 22:53:00
3:53 PM,55.9,50.0,80,30.10,10.0,SW,20.7,-,N/A,,Mostly Cloudy,220,2013-09-25 23:53:00
4:53 PM,57.0,48.9,74,30.08,10.0,South,12.7,-,N/A,,Overcast,190,2013-09-26 00:53:00
5:53 PM,55.9,48.9,77,30.06,10.0,South,12.7,20.7,N/A,,Overcast,190,2013-09-26 01:53:00
6:53 PM,54.0,51.1,90,30.04,10.0,South,19.6,24.2,N/A,,Overcast,190,2013-09-26 02:53:00
7:53 PM,55.0,48.0,77,30.02,10.0,South,11.5,-,N/A,,Overcast,180,2013-09-26 03:53:00
8:53 PM,55.0,50.0,83,30.01,10.0,South,18.4,25.3,N/A,,Overcast,190,2013-09-26 04:53:00
9:53 PM,55.0,48.9,80,30.01,10.0,South,8.1,-,0.00,Rain,Light Rain,190,2013-09-26 05:53:00
10:53 PM,54.0,48.0,80,29.99,9.0,South,11.5,-,0.01,Rain,Light Rain,180,2013-09-26 06:53:00
11:41 PM,53.1,48.0,83,29.97,5.0,SE,11.5,-,0.05,Rain,Rain,130,2013-09-26 07:41:00
11:53 PM,53.1,48.0,83,29.97,4.0,ESE,13.8,19.6,0.08,Rain,Light Rain,110,2013-09-26 07:53:00